Weather History for West Plains, MO

Change the Weather History Date:

Saturday, January 26, 2013

  Actual Average Record
Temperature  
Mean Temperature 41 °F 34 °F  
Max Temperature 54 °F 45 °F 77 °F (1952)
Min Temperature 27 °F 24 °F 4 °F (1978)
Degree Days  
Heating Degree Days 24 31  
Month to date heating degree days 788 806  
Since 1 July heating degree days 2456 2551  
Cooling Degree Days 0 0  
Month to date cooling degree days 0 0  
Year to date cooling degree days 0 0  
Moisture  
Dew Point 23 °F    
Average Humidity 48    
Maximum Humidity 69    
Minimum Humidity 26    
Precipitation  
Precipitation 0.00 in 0.13 in 1.39 in (1967)
Month to date precipitation 1.92 2.07  
Year to date precipitation 1.92 2.07  
Sea Level Pressure  
Sea Level Pressure 30.28 in    
Wind  
Wind Speed 3 mph (SE)    
Max Wind Speed 8 mph    
Max Gust Speed -    
Visibility 10 miles    
Events      
T = Trace of Precipitation, MM = Missing Value Source: NWS Daily Summary

Daily Weather History Graph

Daily Weather History Graph

Search for Another Location

Airport:

Trip Planner

Search our weather history database for the weather conditions in past years. The results will help you decide how hot, cold, wet, or windy it might be!

Date:

Astronomy

Jan. 26, 2013 Rise Set
Actual Time 7:14 AM CST 5:26 PM CST
Civil Twilight 6:46 AM CST 5:54 PM CST
Nautical Twilight 6:15 AM CST 6:25 PM CST
Astronomical Twilight 5:44 AM CST 6:56 PM CST
Moon 5:20 PM CST 6:33 AM CST
Length of Visible Light 11h 07m
Length of Day
10h 12m
Full, 100% of the Moon is Illuminated
Jan 26
Full
Jan 26
Full
Feb 3
Last Quarter
Feb 10
New
Feb 17
First Quarter

Hourly Weather History & Observations

Time (CST) Temp. Windchill Dew Point Humidity Pressure Visibility Wind Dir Wind Speed Gust Speed Precip Events Conditions
12:53 AM 32.0 °F 28.7 °F 21.9 °F 66% 30.28 in 10.0 mi West 3.5 mph - N/A   Clear
1:53 AM 34.0 °F 31.0 °F 21.0 °F 59% 30.28 in 10.0 mi NW 3.5 mph - N/A   Clear
2:53 AM 33.1 °F - 21.0 °F 61% 30.27 in 10.0 mi Calm Calm - N/A   Clear
3:53 AM 30.9 °F - 21.9 °F 69% 30.27 in 10.0 mi Calm Calm - N/A   Clear
4:53 AM 35.1 °F - 19.9 °F 54% 30.27 in 10.0 mi Calm Calm - N/A   Clear
5:53 AM 30.0 °F - 21.0 °F 69% 30.30 in 10.0 mi Calm Calm - N/A   Clear
6:53 AM 32.0 °F - 21.9 °F 66% 30.31 in 10.0 mi Calm Calm - N/A   Clear
7:53 AM 35.1 °F - 21.0 °F 57% 30.31 in 10.0 mi Calm Calm - N/A   Clear
8:53 AM 39.0 °F 36.8 °F 23.0 °F 53% 30.33 in 10.0 mi ENE 3.5 mph - N/A   Clear
9:53 AM 42.1 °F 37.7 °F 23.0 °F 47% 30.34 in 10.0 mi East 6.9 mph - N/A   Clear
10:53 AM 45.0 °F 41.8 °F 24.1 °F 44% 30.33 in 10.0 mi East 5.8 mph - N/A   Clear
11:53 AM 48.0 °F - 23.0 °F 37% 30.32 in 10.0 mi Variable 4.6 mph - N/A   Clear
12:53 PM 50.0 °F - 21.9 °F 33% 30.30 in 10.0 mi South 3.5 mph - N/A   Clear
1:53 PM 53.1 °F - 19.9 °F 27% 30.27 in 10.0 mi South 5.8 mph - N/A   Clear
2:53 PM 53.1 °F - 21.9 °F 30% 30.25 in 10.0 mi South 3.5 mph - N/A   Clear
3:53 PM 53.1 °F - 19.9 °F 27% 30.25 in 10.0 mi SSE 6.9 mph - N/A   Clear
4:53 PM 51.1 °F - 21.0 °F 31% 30.24 in 10.0 mi SSE 5.8 mph - N/A   Clear
5:53 PM 46.0 °F 42.5 °F 21.9 °F 39% 30.27 in 10.0 mi ESE 6.9 mph - N/A   Clear
6:53 PM 46.0 °F 41.9 °F 23.0 °F 40% 30.26 in 10.0 mi SE 8.1 mph - N/A   Overcast
7:53 PM 45.0 °F 41.2 °F 25.0 °F 46% 30.26 in 10.0 mi SE 6.9 mph - N/A   Overcast
8:53 PM 42.1 °F 37.7 °F 26.1 °F 53% 30.26 in 10.0 mi ESE 6.9 mph - N/A   Mostly Cloudy
9:53 PM 39.9 °F 35.8 °F 27.0 °F 60% 30.27 in 10.0 mi ESE 5.8 mph - N/A   Scattered Clouds
10:53 PM 39.9 °F 35.8 °F 28.0 °F 63% 30.27 in 10.0 mi SE 5.8 mph - N/A   Mostly Cloudy
11:53 PM 39.0 °F 34.8 °F 28.0 °F 65% 30.26 in 10.0 mi SE 5.8 mph - N/A   Mostly Cloudy